Fayetteville, NC

3:33 PM EDT on April 29, 2017 (GMT -0400)
Fayetteville Regional-Grannis

Weather History for KFAY - March, 2012

Change the Weather History Date:

Friday, March 9, 2012

  Actual Average Record
Temperature  
Mean Temperature 52 °F 52 °F  
Max Temperature 64 °F 64 °F 87 °F (1974)
Min Temperature 39 °F 40 °F 19 °F (1996)
Degree Days  
Heating Degree Days 13 13  
Month to date heating degree days 99 127  
Since 1 July heating degree days 1960 2352  
Cooling Degree Days 0 0  
Month to date cooling degree days 8 0  
Year to date cooling degree days 9 4  
Growing Degree Days 4 (Base 50)    
Moisture  
Dew Point 51 °F    
Average Humidity 70    
Maximum Humidity 100    
Minimum Humidity 39    
Precipitation  
Precipitation 0.05 in 0.11 in 3.84 in (1998)
Month to date precipitation 1.67 0.96  
Year to date precipitation 5.58 7.02  
Sea Level Pressure  
Sea Level Pressure 30.15 in    
Wind  
Wind Speed 6 mph (WNW)    
Max Wind Speed 16 mph    
Max Gust Speed 21 mph    
Visibility 9 miles    
Events Rain    
T = Trace of Precipitation, MM = Missing Value Source: NWS Daily Summary

Daily Weather History Graph

Daily Weather History Graph

Search for Another Location

Airport or City:

Trip Planner

Search our weather history database for the weather conditions in past years. The results will help you decide how hot, cold, wet, or windy it might be!

Date:

Astronomy

Mar. 09, 2012 Rise Set
Actual Time 6:33 AM EST 6:18 PM EST
Civil Twilight 6:08 AM EST 6:43 PM EST
Nautical Twilight 5:39 AM EST 7:13 PM EST
Astronomical Twilight 5:09 AM EST 7:42 PM EST
Moon 8:08 PM EST (3/9) 6:56 AM EST (3/9)
Length of Visible Light 12h 35m
Length of Day
11h 44m
Full, 98% of the Moon is Illuminated
Mar 9
Full
Mar 14
Last Quarter
Mar 22
New
Mar 30
First Quarter
Apr 6
Full

Hourly Weather History & Observations

Time (EST) Temp. Windchill Dew Point Humidity Pressure Visibility Wind Dir Wind Speed Gust Speed Precip Events Conditions
12:53 AM 57.9 °F - 57.0 °F 97% 30.13 in 10.0 mi South 8.1 mph - N/A   Clear
1:53 AM 57.9 °F - 57.0 °F 97% 30.12 in 10.0 mi South 6.9 mph - N/A   Mostly Cloudy
2:53 AM 57.9 °F - 57.0 °F 97% 30.10 in 10.0 mi SSW 6.9 mph - N/A   Scattered Clouds
3:53 AM 59.0 °F - 57.0 °F 93% 30.10 in 10.0 mi SW 5.8 mph - N/A   Overcast
4:45 AM 59.0 °F - 57.2 °F 94% 30.11 in 10.0 mi SSW 5.8 mph - N/A   Overcast
4:53 AM 59.0 °F - 57.0 °F 93% 30.10 in 10.0 mi SW 5.8 mph - N/A   Overcast
5:53 AM 59.0 °F - 57.9 °F 96% 30.09 in 6.0 mi SSW 5.8 mph - 0.01 in Rain Light Rain
6:02 AM 59.0 °F - 57.2 °F 94% 30.10 in 9.0 mi South 8.1 mph - 0.00 in Rain Light Rain
6:53 AM 60.1 °F - 59.0 °F 96% 30.08 in 9.0 mi SSW 6.9 mph - 0.01 in   Overcast
7:45 AM 60.8 °F - 59.0 °F 94% 30.10 in 6.0 mi SSW 5.8 mph - 0.00 in   Overcast
7:53 AM 60.1 °F - 59.0 °F 96% 30.09 in 6.0 mi SW 5.8 mph - 0.00 in   Overcast
8:05 AM 60.8 °F - 59.0 °F 94% 30.11 in 5.0 mi WSW 6.9 mph - 0.01 in Rain Light Rain
8:16 AM 60.8 °F - 59.0 °F 94% 30.12 in 3.0 mi WNW 8.1 mph - 0.02 in Rain Light Rain
8:46 AM 60.8 °F - 59.0 °F 94% 30.12 in 5.0 mi West 5.8 mph - 0.03 in   Overcast
8:53 AM 60.1 °F - 59.0 °F 96% 30.11 in 3.0 mi West 4.6 mph - 0.03 in   Overcast
9:53 AM 61.0 °F - 60.1 °F 97% 30.13 in 10.0 mi NW 5.8 mph - N/A   Overcast
10:05 AM 62.6 °F - 59.0 °F 88% 30.15 in 10.0 mi NW 8.1 mph - N/A   Overcast
10:22 AM 62.6 °F - 59.0 °F 88% 30.15 in 10.0 mi NNW 6.9 mph - N/A   Overcast
10:53 AM 63.0 °F - 59.0 °F 87% 30.13 in 10.0 mi NNW 5.8 mph - N/A   Overcast
11:49 AM 62.6 °F - 57.2 °F 82% 30.16 in 10.0 mi WNW 8.1 mph - 0.00 in   Overcast
11:53 AM 63.0 °F - 57.0 °F 81% 30.14 in 10.0 mi NW 8.1 mph - 0.00 in   Overcast
12:08 PM 64.4 °F - 55.4 °F 73% 30.15 in 10.0 mi NNW 8.1 mph - N/A   Overcast
12:24 PM 60.8 °F - 53.6 °F 77% 30.16 in 10.0 mi North 11.5 mph - 0.00 in Rain Light Rain
12:50 PM 60.8 °F - 51.8 °F 72% 30.16 in 10.0 mi North 11.5 mph - 0.00 in   Overcast
12:53 PM 62.1 °F - 52.0 °F 70% 30.15 in 10.0 mi North 10.4 mph - 0.00 in   Overcast
1:53 PM 60.1 °F - 44.1 °F 55% 30.14 in 10.0 mi NNW 12.7 mph - 0.00 in   Overcast
2:53 PM 61.0 °F - 39.0 °F 44% 30.14 in 10.0 mi North 10.4 mph - N/A   Scattered Clouds
3:53 PM 61.0 °F - 35.1 °F 38% 30.14 in 10.0 mi North 9.2 mph - N/A   Partly Cloudy
4:53 PM 60.1 °F - 36.0 °F 41% 30.16 in 10.0 mi NNW 6.9 mph - N/A   Clear
5:53 PM 57.0 °F - 36.0 °F 45% 30.18 in 10.0 mi North 5.8 mph - N/A   Clear
6:53 PM 52.0 °F - 34.0 °F 50% 30.20 in 10.0 mi North 5.8 mph - N/A   Clear
7:53 PM 51.1 °F - 33.1 °F 50% 30.21 in 10.0 mi NNW 3.5 mph - N/A   Clear
8:53 PM 50.0 °F - 34.0 °F 54% 30.25 in 10.0 mi North 3.5 mph - N/A   Clear
9:53 PM 45.0 °F - 39.0 °F 80% 30.26 in 10.0 mi Calm Calm - N/A   Clear
10:53 PM 43.0 °F - 37.0 °F 80% 30.28 in 10.0 mi Calm Calm - N/A   Clear
11:53 PM 39.0 °F 36.8 °F 34.0 °F 82% 30.28 in 10.0 mi North 3.5 mph - N/A   Clear